Home   Weather   Billings   Past weeks

Flag for USA Past Weather in Billings, Montana, USA — Yesterday and Last 2 Weeks

53 °F

Passing clouds.

Feels Like: 51 °F
Forecast: 38 / 68 °F
Wind: 6 mph from North

Location: Billings Logan International Airport

Current Time: Oct 23, 2016 at 7:52:05 PM

Latest Report: Oct 23, 2016 at 6:53 PM

Visibility: 10 mi

Pressure: 30.11 "Hg (26.88 "Hg at 946m altitude)

Humidity: 52%

Dew Point: 36 °F

Location of BillingsLocation

Past Weather in Billings — Graph


Billings Temperature Yesterday

Maximum temperature yesterday: 64 °F (at 2:53 PM)
Minimum temperature yesterday: 35 °F (at 7:53 AM)
Average temperature yesterday: 51 °F

High & Low Weather Summary for the Past Weeks

High77 °F (Oct 9, 2:53 PM)97% (Oct 10, 8:53 AM)30.43 "Hg (Oct 10, 8:53 AM)
Low23 °F (Oct 12, 3:53 AM)20% (Oct 9, 2:53 PM)29.35 "Hg (Oct 16, 4:53 AM)
Average49 °F56%29.92 "Hg
* Reported Oct 8 6:53 PM — Oct 23 6:53 PM, Billings, Weather by CustomWeather, © 2016

Note: Actual official high and low records may vary slightly from our data, if they occured in-between our weather recording intervals... More about our weather records


Billings Weather History for the Previous 24 Hours

Scroll right to see more
Time TempWeatherWind HumidityBarometerVisibility
6:53 PM
Sun, Oct 23
53 °FPassing clouds.6 mph52%30.11 "Hg10 mi
5:53 PM56 °FPartly sunny.5 mph47%30.11 "Hg10 mi
4:53 PM58 °FPartly sunny.5 mph44%30.10 "Hg10 mi
3:53 PM57 °FScattered clouds.5 mph47%30.10 "Hg10 mi
2:53 PM56 °FPartly sunny.No wind49%30.09 "Hg10 mi
1:53 PM56 °FScattered clouds.No wind49%30.11 "Hg10 mi
12:53 PM52 °FScattered clouds.3 mph57%30.14 "Hg10 mi
11:53 AM49 °FScattered clouds.No wind61%30.15 "Hg10 mi
10:53 AM46 °FScattered clouds.5 mph66%30.16 "Hg10 mi
9:53 AM43 °FScattered clouds.No wind71%30.16 "Hg10 mi
8:53 AM42 °FScattered clouds.5 mph73%30.15 "Hg10 mi
7:53 AM40 °FScattered clouds.3 mph73%30.14 "Hg10 mi
6:53 AM39 °FPassing clouds.8 mph76%30.13 "Hg10 mi
5:53 AM40 °FPassing clouds.6 mph73%30.12 "Hg10 mi
4:53 AM40 °FPassing clouds.7 mph73%30.10 "Hg10 mi
3:53 AM42 °FPassing clouds.8 mph71%30.08 "Hg10 mi
2:53 AM43 °FPassing clouds.5 mph68%30.07 "Hg10 mi
1:53 AM44 °FPassing clouds.3 mph65%30.07 "Hg10 mi
12:53 AM43 °FPartly cloudy.7 mph65%30.07 "Hg10 mi
11:53 PM
Sat, Oct 22
47 °FPartly cloudy.No wind56%30.06 "Hg10 mi
10:53 PM48 °FPassing clouds.5 mph54%30.02 "Hg10 mi
9:53 PM50 °FPassing clouds.8 mph52%30.05 "Hg10 mi
8:53 PM49 °FPassing clouds.6 mph41%30.04 "Hg10 mi
7:53 PM53 °FPassing clouds.3 mph34%30.03 "Hg10 mi
Weather by CustomWeather, © 2016

See weather overviewHow to use our weather pages